Location: Fontevrault
(47.1823°N, 0.0493°E)
Time: 01:24:44
(UTC+00:00)

Cosmos 2058 Rocket - Pass Details

Date: 01 November 2021
Orbit: 610 x 640 km, 82.5° (Epoch: 30 November)

Event Time Altitude Azimuth Distance (km) Brightness Sun altitude
Rises 05:15:41 0° 356° (N) 2,888 6.4 -15.3°
Reaches altitude 10° 05:18:00 10° 3° (N) 1,977 5.6 -14.9°
Maximum altitude 05:22:11 43° 76° (ENE) 857 4.3 -14.2°
Drops below altitude 10° 05:26:20 10° 148° (SSE) 1,961 6.2 -13.5°
Sets 05:28:37 0° 155° (SSE) 2,862 6.9 -13.1°
